contact:dominique.lefevre@mio.osupytheas.fr, maurice.libes@osupytheas.fr, didier.mallarino@osupytheas.fr
Project:EMSO http://www.emso-fr.org/EMSO-France
Depth: 2436.0 m
Title:EMSO Ligure Ouest : Data MII capteur MICROCAT
DateTime_Computer,Latitude,Longitude,Temperature,Conductivity,Pressure,DateTime_Instrument
DateTime_Computer,Latitude,Longitude,degC,S m-1,dbar,DateTime_Instrument
2019-09-09T00:02:51Z,42.805,6.029,13.2960,4.59960,2469.914,2019-9-09T02:03:14Z
2019-09-09T00:05:54Z,42.805,6.029,13.2959,4.59957,2469.9,2019-9-09T02:06:17Z
2019-09-09T00:08:57Z,42.805,6.029,13.2961,4.59965,2469.923,2019-9-09T02:09:20Z
2019-09-09T00:12:01Z,42.805,6.029,13.2961,4.59961,2469.923,2019-9-09T02:12:23Z
2019-09-09T00:15:04Z,42.805,6.029,13.2963,4.59961,2469.9,2019-9-09T02:15:26Z
2019-09-09T00:18:07Z,42.805,6.029,13.2959,4.59956,2469.876,2019-9-09T02:18:30Z
2019-09-09T00:21:10Z,42.805,6.029,13.2961,4.59958,2469.876,2019-9-09T02:21:33Z
2019-09-09T00:24:14Z,42.805,6.029,13.2958,4.59958,2469.89,2019-9-09T02:24:36Z
2019-09-09T00:27:17Z,42.805,6.029,13.2964,4.59964,2469.923,2019-9-09T02:27:40Z
2019-09-09T00:30:20Z,42.805,6.029,13.2961,4.59959,2469.89,2019-9-09T02:30:43Z
2019-09-09T00:33:24Z,42.805,6.029,13.2962,4.59960,2469.914,2019-9-09T02:33:46Z
2019-09-09T00:36:27Z,42.805,6.029,13.2959,4.59958,2469.876,2019-9-09T02:36:49Z
2019-09-09T00:39:30Z,42.805,6.029,13.2960,4.59960,2469.9,2019-9-09T02:39:53Z
2019-09-09T00:42:33Z,42.805,6.029,13.2957,4.59960,2469.923,2019-9-09T02:42:56Z
2019-09-09T00:45:36Z,42.805,6.029,13.2959,4.59961,2469.9,2019-9-09T02:45:59Z
2019-09-09T00:48:40Z,42.805,6.029,13.2959,4.59958,2469.853,2019-9-09T02:49:02Z
2019-09-09T00:51:43Z,42.805,6.029,13.2959,4.59961,2469.937,2019-9-09T02:52:05Z
2019-09-09T00:54:46Z,42.805,6.029,13.2960,4.59957,2469.923,2019-9-09T02:55:09Z
2019-09-09T00:57:50Z,42.805,6.029,13.2961,4.59961,2469.9,2019-9-09T02:58:12Z
2019-09-09T01:00:53Z,42.805,6.029,13.2961,4.59963,2469.876,2019-9-09T03:01:15Z
2019-09-09T01:03:56Z,42.805,6.029,13.2961,4.59961,2469.914,2019-9-09T03:04:19Z
2019-09-09T01:06:59Z,42.805,6.029,13.2961,4.59963,2469.853,2019-9-09T03:07:22Z
2019-09-09T01:10:02Z,42.805,6.029,13.2962,4.59958,2469.937,2019-9-09T03:10:25Z
2019-09-09T01:13:06Z,42.805,6.029,13.2966,4.59961,2469.914,2019-9-09T03:13:28Z
2019-09-09T01:16:09Z,42.805,6.029,13.2960,4.59959,2469.876,2019-9-09T03:16:31Z
2019-09-09T01:19:12Z,42.805,6.029,13.2966,4.59961,2469.914,2019-9-09T03:19:35Z
2019-09-09T01:22:15Z,42.805,6.029,13.2962,4.59961,2469.914,2019-9-09T03:22:38Z
2019-09-09T01:25:18Z,42.805,6.029,13.2959,4.59963,2469.876,2019-9-09T03:25:41Z
2019-09-09T01:28:22Z,42.805,6.029,13.2964,4.59964,2469.914,2019-9-09T03:28:44Z
2019-09-09T01:31:25Z,42.805,6.029,13.2958,4.59958,2469.914,2019-9-09T03:31:47Z
2019-09-09T01:34:28Z,42.805,6.029,13.2958,4.59961,2469.937,2019-9-09T03:34:51Z
2019-09-09T01:37:31Z,42.805,6.029,13.2961,4.59958,2469.9,2019-9-09T03:37:54Z
2019-09-09T01:40:34Z,42.805,6.029,13.2963,4.59959,2469.89,2019-9-09T03:40:57Z
2019-09-09T01:43:38Z,42.805,6.029,13.2957,4.59963,2469.937,2019-9-09T03:44:00Z
2019-09-09T01:46:41Z,42.805,6.029,13.2961,4.59959,2469.914,2019-9-09T03:47:03Z
2019-09-09T01:49:44Z,42.805,6.029,13.2964,4.59958,2469.937,2019-9-09T03:50:07Z
2019-09-09T01:52:47Z,42.805,6.029,13.2964,4.59961,2469.9,2019-9-09T03:53:10Z
2019-09-09T01:55:50Z,42.805,6.029,13.2963,4.59958,2469.937,2019-9-09T03:56:13Z
2019-09-09T01:58:54Z,42.805,6.029,13.2962,4.59958,2469.914,2019-9-09T03:59:16Z
2019-09-09T02:01:57Z,42.805,6.029,13.2963,4.59964,2469.923,2019-9-09T04:02:20Z
2019-09-09T02:05:00Z,42.805,6.029,13.2964,4.59963,2469.89,2019-9-09T04:05:23Z
2019-09-09T02:08:03Z,42.805,6.029,13.2962,4.59958,2469.923,2019-9-09T04:08:26Z
2019-09-09T02:11:07Z,42.805,6.029,13.2965,4.59961,2469.937,2019-9-09T04:11:29Z
2019-09-09T02:14:10Z,42.805,6.029,13.2961,4.59959,2469.9,2019-9-09T04:14:32Z
2019-09-09T02:17:13Z,42.805,6.029,13.2964,4.59960,2469.923,2019-9-09T04:17:36Z
2019-09-09T02:20:16Z,42.805,6.029,13.2961,4.59961,2469.923,2019-9-09T04:20:39Z
2019-09-09T02:23:19Z,42.805,6.029,13.2964,4.59964,2469.937,2019-9-09T04:23:42Z
2019-09-09T02:26:23Z,42.805,6.029,13.2958,4.59959,2469.923,2019-9-09T04:26:45Z
2019-09-09T02:29:26Z,42.805,6.029,13.2963,4.59960,2469.923,2019-9-09T04:29:48Z
2019-09-09T02:32:29Z,42.805,6.029,13.2961,4.59959,2469.923,2019-9-09T04:32:52Z
2019-09-09T02:35:32Z,42.805,6.029,13.2958,4.59958,2469.923,2019-9-09T04:35:55Z
2019-09-09T02:38:36Z,42.805,6.029,13.2964,4.59961,2469.937,2019-9-09T04:38:58Z
2019-09-09T02:41:39Z,42.805,6.029,13.2964,4.59962,2469.96,2019-9-09T04:42:01Z
2019-09-09T02:44:42Z,42.805,6.029,13.2966,4.59961,2469.9,2019-9-09T04:45:05Z
2019-09-09T02:47:45Z,42.805,6.029,13.2959,4.59959,2469.923,2019-9-09T04:48:08Z
2019-09-09T02:50:48Z,42.805,6.029,13.2957,4.59960,2469.923,2019-9-09T04:51:11Z
2019-09-09T02:53:52Z,42.805,6.029,13.2957,4.59958,2469.923,2019-9-09T04:54:14Z
2019-09-09T02:56:55Z,42.805,6.029,13.2965,4.59958,2469.984,2019-9-09T04:57:17Z
2019-09-09T02:59:58Z,42.805,6.029,13.2964,4.59961,2469.9,2019-9-09T05:00:21Z
2019-09-09T03:03:01Z,42.805,6.029,13.2964,4.59962,2469.923,2019-9-09T05:03:24Z
2019-09-09T03:06:05Z,42.805,6.029,13.2962,4.59960,2469.937,2019-9-09T05:06:27Z
2019-09-09T03:09:08Z,42.805,6.029,13.2964,4.59960,2469.9,2019-9-09T05:09:30Z
2019-09-09T03:12:11Z,42.805,6.029,13.2962,4.59959,2469.923,2019-9-09T05:12:33Z
2019-09-09T03:15:14Z,42.805,6.029,13.2959,4.59963,2469.914,2019-9-09T05:15:37Z
2019-09-09T03:18:17Z,42.805,6.029,13.2964,4.59962,2469.937,2019-9-09T05:18:40Z
2019-09-09T03:21:21Z,42.805,6.029,13.2960,4.59958,2469.9,2019-9-09T05:21:43Z
2019-09-09T03:24:24Z,42.805,6.029,13.2965,4.59965,2469.923,2019-9-09T05:24:46Z
2019-09-09T03:27:27Z,42.805,6.029,13.2964,4.59961,2469.937,2019-9-09T05:27:50Z
2019-09-09T03:30:30Z,42.805,6.029,13.2960,4.59963,2469.923,2019-9-09T05:30:53Z
2019-09-09T03:33:33Z,42.805,6.029,13.2965,4.59961,2469.876,2019-9-09T05:33:56Z
2019-09-09T03:36:37Z,42.805,6.029,13.2958,4.59964,2469.937,2019-9-09T05:36:59Z
2019-09-09T03:39:40Z,42.805,6.029,13.2963,4.59962,2469.923,2019-9-09T05:40:02Z
2019-09-09T03:42:43Z,42.805,6.029,13.2958,4.59957,2469.947,2019-9-09T05:43:06Z
2019-09-09T03:45:46Z,42.805,6.029,13.2964,4.59961,2469.876,2019-9-09T05:46:09Z
2019-09-09T03:48:50Z,42.805,6.029,13.2964,4.59961,2469.923,2019-9-09T05:49:12Z
2019-09-09T03:51:53Z,42.805,6.029,13.2966,4.59961,2469.9,2019-9-09T05:52:15Z
2019-09-09T03:54:56Z,42.805,6.029,13.2965,4.59961,2469.923,2019-9-09T05:55:19Z
2019-09-09T03:57:59Z,42.805,6.029,13.2962,4.59964,2469.923,2019-9-09T05:58:22Z
2019-09-09T04:01:02Z,42.805,6.029,13.2964,4.59961,2469.914,2019-9-09T06:01:25Z
2019-09-09T04:04:06Z,42.805,6.029,13.2964,4.59960,2469.923,2019-9-09T06:04:28Z
2019-09-09T04:07:09Z,42.805,6.029,13.2961,4.59961,2469.9,2019-9-09T06:07:32Z
2019-09-09T04:10:12Z,42.805,6.029,13.2967,4.59966,2469.937,2019-9-09T06:10:35Z
2019-09-09T04:13:16Z,42.805,6.029,13.2965,4.59959,2469.9,2019-9-09T06:13:38Z
2019-09-09T04:16:19Z,42.805,6.029,13.2964,4.59966,2469.937,2019-9-09T06:16:41Z
2019-09-09T04:19:22Z,42.805,6.029,13.2963,4.59962,2469.923,2019-9-09T06:19:45Z
2019-09-09T04:22:25Z,42.805,6.029,13.2963,4.59962,2469.947,2019-9-09T06:22:48Z
2019-09-09T04:25:29Z,42.805,6.029,13.2964,4.59964,2469.9,2019-9-09T06:25:51Z
2019-09-09T04:28:32Z,42.805,6.029,13.2967,4.59961,2469.923,2019-9-09T06:28:54Z
2019-09-09T04:31:35Z,42.805,6.029,13.2966,4.59962,2469.9,2019-9-09T06:31:58Z
2019-09-09T04:34:38Z,42.805,6.029,13.2962,4.59963,2469.937,2019-9-09T06:35:01Z
2019-09-09T04:37:41Z,42.805,6.029,13.2963,4.59960,2469.923,2019-9-09T06:38:04Z
2019-09-09T04:40:45Z,42.805,6.029,13.2961,4.59961,2469.923,2019-9-09T06:41:07Z
2019-09-09T04:43:48Z,42.805,6.029,13.2964,4.59961,2469.923,2019-9-09T06:44:11Z
2019-09-09T04:46:51Z,42.805,6.029,13.2964,4.59963,2469.96,2019-9-09T06:47:14Z
2019-09-09T04:49:54Z,42.805,6.029,13.2965,4.59962,2469.923,2019-9-09T06:50:17Z
2019-09-09T04:52:58Z,42.805,6.029,13.2964,4.59966,2469.947,2019-9-09T06:53:20Z
2019-09-09T04:56:01Z,42.805,6.029,13.2965,4.59963,2469.937,2019-9-09T06:56:24Z
2019-09-09T04:59:04Z,42.805,6.029,13.2964,4.59960,2469.937,2019-9-09T06:59:27Z
2019-09-09T05:02:08Z,42.805,6.029,13.2968,4.59963,2469.923,2019-9-09T07:02:30Z
2019-09-09T05:05:11Z,42.805,6.029,13.2967,4.59964,2469.923,2019-9-09T07:05:33Z
2019-09-09T05:08:14Z,42.805,6.029,13.2963,4.59961,2469.914,2019-9-09T07:08:37Z
2019-09-09T05:11:17Z,42.805,6.029,13.2961,4.59963,2469.937,2019-9-09T07:11:40Z
2019-09-09T05:14:20Z,42.805,6.029,13.2969,4.59965,2469.9,2019-9-09T07:14:43Z
2019-09-09T05:17:24Z,42.805,6.029,13.2961,4.59965,2469.914,2019-9-09T07:17:46Z
2019-09-09T05:20:27Z,42.805,6.029,13.2966,4.59964,2469.9,2019-9-09T07:20:50Z
2019-09-09T05:23:30Z,42.805,6.029,13.2965,4.59964,2469.876,2019-9-09T07:23:53Z
2019-09-09T05:26:33Z,42.805,6.029,13.2961,4.59963,2469.923,2019-9-09T07:26:56Z
2019-09-09T05:29:37Z,42.805,6.029,13.2961,4.59963,2469.923,2019-9-09T07:29:59Z
2019-09-09T05:32:40Z,42.805,6.029,13.2962,4.59964,2469.9,2019-9-09T07:33:02Z
2019-09-09T05:35:43Z,42.805,6.029,13.2962,4.59963,2469.96,2019-9-09T07:36:06Z
2019-09-09T05:38:46Z,42.805,6.029,13.2962,4.59962,2469.914,2019-9-09T07:39:09Z
2019-09-09T05:41:49Z,42.805,6.029,13.2966,4.59962,2469.9,2019-9-09T07:42:12Z
2019-09-09T05:44:53Z,42.805,6.029,13.2967,4.59968,2469.923,2019-9-09T07:45:15Z
2019-09-09T05:47:56Z,42.805,6.029,13.2965,4.59963,2469.923,2019-9-09T07:48:19Z
2019-09-09T05:50:59Z,42.805,6.029,13.2966,4.59963,2469.923,2019-9-09T07:51:22Z
2019-09-09T05:54:03Z,42.805,6.029,13.2964,4.59963,2469.923,2019-9-09T07:54:25Z
2019-09-09T05:57:06Z,42.805,6.029,13.2968,4.59964,2469.923,2019-9-09T07:57:28Z
2019-09-09T06:00:09Z,42.805,6.029,13.2971,4.59966,2469.914,2019-9-09T08:00:32Z
2019-09-09T06:03:12Z,42.805,6.029,13.2965,4.59963,2469.89,2019-9-09T08:03:35Z
2019-09-09T06:06:16Z,42.805,6.029,13.2964,4.59964,2469.923,2019-9-09T08:06:38Z
2019-09-09T06:09:19Z,42.805,6.029,13.2967,4.59964,2469.96,2019-9-09T08:09:41Z
2019-09-09T06:12:22Z,42.805,6.029,13.2967,4.59963,2469.923,2019-9-09T08:12:45Z
2019-09-09T06:15:25Z,42.805,6.029,13.2960,4.59966,2469.923,2019-9-09T08:15:48Z
2019-09-09T06:18:29Z,42.805,6.029,13.2963,4.59966,2469.9,2019-9-09T08:18:51Z
2019-09-09T06:21:32Z,42.805,6.029,13.2961,4.59964,2469.9,2019-9-09T08:21:55Z
2019-09-09T06:24:35Z,42.805,6.029,13.2968,4.59975,2469.923,2019-9-09T08:24:58Z
2019-09-09T06:27:39Z,42.805,6.029,13.2965,4.59963,2469.937,2019-9-09T08:28:01Z
2019-09-09T06:30:42Z,42.805,6.029,13.2967,4.59963,2469.914,2019-9-09T08:31:05Z
2019-09-09T06:33:45Z,42.805,6.029,13.2965,4.59961,2469.9,2019-9-09T08:34:08Z
2019-09-09T06:36:49Z,42.805,6.029,13.2968,4.59963,2469.937,2019-9-09T08:37:11Z
2019-09-09T06:39:52Z,42.805,6.029,13.2967,4.59963,2469.9,2019-9-09T08:40:14Z
2019-09-09T06:42:55Z,42.805,6.029,13.2962,4.59964,2469.914,2019-9-09T08:43:18Z
2019-09-09T06:45:58Z,42.805,6.029,13.2965,4.59966,2469.923,2019-9-09T08:46:21Z
2019-09-09T06:49:01Z,42.805,6.029,13.2967,4.59967,2469.914,2019-9-09T08:49:24Z
2019-09-09T06:52:05Z,42.805,6.029,13.2969,4.59970,2469.947,2019-9-09T08:52:27Z
2019-09-09T06:55:08Z,42.805,6.029,13.2963,4.59964,2469.923,2019-9-09T08:55:30Z
2019-09-09T06:58:11Z,42.805,6.029,13.2967,4.59963,2469.9,2019-9-09T08:58:34Z
2019-09-09T07:01:14Z,42.805,6.029,13.2971,4.59971,2469.923,2019-9-09T09:01:37Z
2019-09-09T07:04:17Z,42.805,6.029,13.2962,4.59963,2469.89,2019-9-09T09:04:40Z
2019-09-09T07:07:21Z,42.805,6.029,13.2964,4.59964,2469.914,2019-9-09T09:07:43Z
2019-09-09T07:10:24Z,42.805,6.029,13.2967,4.59964,2469.914,2019-9-09T09:10:47Z
2019-09-09T07:13:27Z,42.805,6.029,13.2961,4.59964,2469.937,2019-9-09T09:13:50Z
2019-09-09T07:16:30Z,42.805,6.029,13.2964,4.59963,2469.914,2019-9-09T09:16:53Z
2019-09-09T07:19:33Z,42.805,6.029,13.2970,4.59966,2469.9,2019-9-09T09:19:56Z
2019-09-09T07:22:37Z,42.805,6.029,13.2968,4.59967,2469.876,2019-9-09T09:22:59Z
2019-09-09T07:25:40Z,42.805,6.029,13.2964,4.59965,2469.876,2019-9-09T09:26:03Z
2019-09-09T07:28:43Z,42.805,6.029,13.2967,4.59965,2469.923,2019-9-09T09:29:06Z
2019-09-09T07:31:46Z,42.805,6.029,13.2966,4.59964,2469.876,2019-9-09T09:32:09Z
2019-09-09T07:34:49Z,42.805,6.029,13.2964,4.59964,2469.9,2019-9-09T09:35:12Z
2019-09-09T07:37:53Z,42.805,6.029,13.2968,4.59964,2469.876,2019-9-09T09:38:15Z
2019-09-09T07:40:56Z,42.805,6.029,13.2965,4.59964,2469.876,2019-9-09T09:41:18Z
2019-09-09T07:43:59Z,42.805,6.029,13.2965,4.59963,2469.876,2019-9-09T09:44:22Z
2019-09-09T07:47:02Z,42.805,6.029,13.2962,4.59962,2469.89,2019-9-09T09:47:25Z
2019-09-09T07:50:05Z,42.805,6.029,13.2962,4.59964,2469.923,2019-9-09T09:50:28Z
2019-09-09T07:53:09Z,42.805,6.029,13.2964,4.59963,2469.9,2019-9-09T09:53:31Z
2019-09-09T07:56:12Z,42.805,6.029,13.2961,4.59962,2469.923,2019-9-09T09:56:34Z
2019-09-09T07:59:15Z,42.805,6.029,13.2962,4.59961,2469.867,2019-9-09T09:59:38Z
2019-09-09T08:02:18Z,42.805,6.029,13.2967,4.59968,2469.876,2019-9-09T10:02:41Z
2019-09-09T08:05:21Z,42.805,6.029,13.2964,4.59965,2469.876,2019-9-09T10:05:44Z
2019-09-09T08:08:25Z,42.805,6.029,13.2964,4.59964,2469.89,2019-9-09T10:08:47Z
2019-09-09T08:11:28Z,42.805,6.029,13.2965,4.59965,2469.863,2019-9-09T10:11:51Z
2019-09-09T08:14:31Z,42.805,6.029,13.2967,4.59965,2469.876,2019-9-09T10:14:54Z
2019-09-09T08:17:34Z,42.805,6.029,13.2966,4.59966,2469.876,2019-9-09T10:17:57Z
2019-09-09T08:20:38Z,42.805,6.029,13.2965,4.59966,2469.83,2019-9-09T10:21:00Z
2019-09-09T08:23:41Z,42.805,6.029,13.2967,4.59966,2469.914,2019-9-09T10:24:04Z
2019-09-09T08:26:44Z,42.805,6.029,13.2969,4.59966,2469.876,2019-9-09T10:27:07Z
2019-09-09T08:29:47Z,42.805,6.029,13.2963,4.59965,2469.876,2019-9-09T10:30:10Z
2019-09-09T08:32:51Z,42.805,6.029,13.2965,4.59963,2469.876,2019-9-09T10:33:13Z
2019-09-09T08:35:54Z,42.805,6.029,13.2964,4.59963,2469.89,2019-9-09T10:36:16Z
2019-09-09T08:38:57Z,42.805,6.029,13.2967,4.59964,2469.853,2019-9-09T10:39:20Z
2019-09-09T08:42:00Z,42.805,6.029,13.2964,4.59963,2469.867,2019-9-09T10:42:23Z
2019-09-09T08:45:04Z,42.805,6.029,13.2962,4.59964,2469.853,2019-9-09T10:45:26Z
2019-09-09T08:48:07Z,42.805,6.029,13.2964,4.59965,2469.867,2019-9-09T10:48:29Z
2019-09-09T08:51:10Z,42.805,6.029,13.2964,4.59965,2469.876,2019-9-09T10:51:33Z
2019-09-09T08:54:13Z,42.805,6.029,13.2969,4.59966,2469.9,2019-9-09T10:54:36Z
2019-09-09T08:57:16Z,42.805,6.029,13.2962,4.59965,2469.853,2019-9-09T10:57:39Z
2019-09-09T09:00:19Z,42.805,6.029,13.2964,4.59964,2469.876,2019-9-09T11:00:42Z
2019-09-09T09:03:23Z,42.805,6.029,13.2964,4.59964,2469.867,2019-9-09T11:03:45Z
2019-09-09T09:06:26Z,42.805,6.029,13.2961,4.59964,2469.876,2019-9-09T11:06:49Z
2019-09-09T09:09:29Z,42.805,6.029,13.2964,4.59966,2469.867,2019-9-09T11:09:52Z
2019-09-09T09:12:32Z,42.805,6.029,13.2958,4.59965,2469.867,2019-9-09T11:12:55Z
2019-09-09T09:15:36Z,42.805,6.029,13.2966,4.59966,2469.853,2019-9-09T11:15:58Z
2019-09-09T09:18:39Z,42.805,6.029,13.2969,4.59964,2469.867,2019-9-09T11:19:01Z
2019-09-09T09:21:42Z,42.805,6.029,13.2968,4.59963,2469.853,2019-9-09T11:22:05Z
2019-09-09T09:24:45Z,42.805,6.029,13.2964,4.59965,2469.844,2019-9-09T11:25:08Z
2019-09-09T09:27:48Z,42.805,6.029,13.2961,4.59964,2469.853,2019-9-09T11:28:11Z
2019-09-09T09:30:52Z,42.805,6.029,13.2962,4.59963,2469.876,2019-9-09T11:31:14Z
2019-09-09T09:33:55Z,42.805,6.029,13.2967,4.59963,2469.876,2019-9-09T11:34:17Z
2019-09-09T09:36:58Z,42.805,6.029,13.2965,4.59965,2469.914,2019-9-09T11:37:21Z
2019-09-09T09:40:01Z,42.805,6.029,13.2964,4.59964,2469.867,2019-9-09T11:40:24Z
2019-09-09T09:43:05Z,42.805,6.029,13.2964,4.59964,2469.867,2019-9-09T11:43:27Z
2019-09-09T09:46:08Z,42.805,6.029,13.2964,4.59965,2469.89,2019-9-09T11:46:30Z
2019-09-09T09:49:11Z,42.805,6.029,13.2965,4.59965,2469.867,2019-9-09T11:49:34Z
2019-09-09T09:52:14Z,42.805,6.029,13.2964,4.59967,2469.853,2019-9-09T11:52:37Z
2019-09-09T09:55:17Z,42.805,6.029,13.2965,4.59964,2469.867,2019-9-09T11:55:40Z
2019-09-09T09:58:21Z,42.805,6.029,13.2966,4.59963,2469.83,2019-9-09T11:58:43Z
2019-09-09T10:01:24Z,42.805,6.029,13.2968,4.59965,2469.89,2019-9-09T12:01:46Z
2019-09-09T10:04:27Z,42.805,6.029,13.2970,4.59971,2469.853,2019-9-09T12:04:50Z
2019-09-09T10:07:30Z,42.805,6.029,13.2964,4.59966,2469.867,2019-9-09T12:07:53Z
2019-09-09T10:10:33Z,42.805,6.029,13.2967,4.59964,2469.89,2019-9-09T12:10:56Z
2019-09-09T10:13:37Z,42.805,6.029,13.2966,4.59963,2469.853,2019-9-09T12:13:59Z
2019-09-09T10:16:40Z,42.805,6.029,13.2964,4.59962,2469.867,2019-9-09T12:17:02Z
2019-09-09T10:19:43Z,42.805,6.029,13.2964,4.59964,2469.853,2019-9-09T12:20:06Z
2019-09-09T10:22:46Z,42.805,6.029,13.2966,4.59963,2469.853,2019-9-09T12:23:09Z
2019-09-09T10:25:49Z,42.805,6.029,13.2967,4.59966,2469.867,2019-9-09T12:26:12Z
2019-09-09T10:28:53Z,42.805,6.029,13.2968,4.59969,2469.844,2019-9-09T12:29:15Z
2019-09-09T10:31:56Z,42.805,6.029,13.2963,4.59967,2469.876,2019-9-09T12:32:19Z
2019-09-09T10:34:59Z,42.805,6.029,13.2967,4.59968,2469.867,2019-9-09T12:35:22Z
2019-09-09T10:38:02Z,42.805,6.029,13.2967,4.59963,2469.876,2019-9-09T12:38:25Z
2019-09-09T10:41:06Z,42.805,6.029,13.2962,4.59964,2469.844,2019-9-09T12:41:28Z
2019-09-09T10:44:09Z,42.805,6.029,13.2967,4.59967,2469.89,2019-9-09T12:44:31Z
2019-09-09T10:47:12Z,42.805,6.029,13.2965,4.59967,2469.853,2019-9-09T12:47:35Z
2019-09-09T10:50:15Z,42.805,6.029,13.2971,4.59968,2469.867,2019-9-09T12:50:38Z
2019-09-09T10:53:18Z,42.805,6.029,13.2964,4.59966,2469.867,2019-9-09T12:53:41Z
2019-09-09T10:56:21Z,42.805,6.029,13.2965,4.59964,2469.853,2019-9-09T12:56:44Z
2019-09-09T10:59:25Z,42.805,6.029,13.2963,4.59964,2469.853,2019-9-09T12:59:47Z
2019-09-09T11:02:28Z,42.805,6.029,13.2970,4.59963,2469.867,2019-9-09T13:02:50Z
2019-09-09T11:05:31Z,42.805,6.029,13.2969,4.59967,2469.844,2019-9-09T13:05:54Z
2019-09-09T11:08:34Z,42.805,6.029,13.2962,4.59964,2469.853,2019-9-09T13:08:57Z
2019-09-09T11:11:38Z,42.805,6.029,13.2966,4.59969,2469.853,2019-9-09T13:12:00Z
2019-09-09T11:14:41Z,42.805,6.029,13.2965,4.59970,2469.9,2019-9-09T13:15:04Z
2019-09-09T11:17:44Z,42.805,6.029,13.2964,4.59964,2469.853,2019-9-09T13:18:07Z
2019-09-09T11:20:47Z,42.805,6.029,13.2966,4.59968,2469.853,2019-9-09T13:21:10Z
2019-09-09T11:23:51Z,42.805,6.029,13.2967,4.59966,2469.867,2019-9-09T13:24:13Z
2019-09-09T11:26:54Z,42.805,6.029,13.2966,4.59970,2469.853,2019-9-09T13:27:16Z
2019-09-09T11:29:57Z,42.805,6.029,13.2970,4.59966,2469.867,2019-9-09T13:30:20Z
2019-09-09T11:33:00Z,42.805,6.029,13.2965,4.59966,2469.9,2019-9-09T13:33:23Z
2019-09-09T11:36:03Z,42.805,6.029,13.2964,4.59964,2469.867,2019-9-09T13:36:26Z
2019-09-09T11:39:07Z,42.805,6.029,13.2967,4.59965,2469.853,2019-9-09T13:39:29Z
2019-09-09T11:42:10Z,42.805,6.029,13.2967,4.59966,2469.914,2019-9-09T13:42:32Z
2019-09-09T11:45:13Z,42.805,6.029,13.2963,4.59963,2469.876,2019-9-09T13:45:36Z
2019-09-09T11:48:16Z,42.805,6.029,13.2967,4.59965,2469.867,2019-9-09T13:48:39Z
2019-09-09T11:51:19Z,42.805,6.029,13.2968,4.59967,2469.853,2019-9-09T13:51:42Z
2019-09-09T11:54:22Z,42.805,6.029,13.2968,4.59965,2469.867,2019-9-09T13:54:45Z
2019-09-09T11:57:26Z,42.805,6.029,13.2964,4.59966,2469.876,2019-9-09T13:57:48Z
2019-09-09T12:00:29Z,42.805,6.029,13.2962,4.59965,2469.853,2019-9-09T14:00:52Z
2019-09-09T12:03:32Z,42.805,6.029,13.2966,4.59966,2469.9,2019-9-09T14:03:55Z
2019-09-09T12:06:35Z,42.805,6.029,13.2967,4.59966,2469.853,2019-9-09T14:06:58Z
2019-09-09T12:09:38Z,42.805,6.029,13.2962,4.59966,2469.876,2019-9-09T14:10:01Z
2019-09-09T12:12:42Z,42.805,6.029,13.2964,4.59966,2469.876,2019-9-09T14:13:04Z
2019-09-09T12:15:45Z,42.805,6.029,13.2961,4.59965,2469.853,2019-9-09T14:16:08Z
2019-09-09T12:18:48Z,42.805,6.029,13.2966,4.59967,2469.914,2019-9-09T14:19:11Z
2019-09-09T12:21:51Z,42.805,6.029,13.2967,4.59966,2469.914,2019-9-09T14:22:14Z
2019-09-09T12:24:54Z,42.805,6.029,13.2966,4.59968,2469.867,2019-9-09T14:25:17Z
2019-09-09T12:27:58Z,42.805,6.029,13.2965,4.59973,2469.89,2019-9-09T14:28:20Z
2019-09-09T12:31:01Z,42.805,6.029,13.2968,4.59971,2469.89,2019-9-09T14:31:23Z
2019-09-09T12:34:04Z,42.805,6.029,13.2965,4.59969,2469.89,2019-9-09T14:34:27Z
2019-09-09T12:37:08Z,42.805,6.029,13.2967,4.59970,2469.914,2019-9-09T14:37:31Z
2019-09-09T12:40:11Z,42.805,6.029,13.2962,4.59966,2469.9,2019-9-09T14:40:34Z
2019-09-09T12:43:14Z,42.805,6.029,13.2962,4.59966,2469.9,2019-9-09T14:43:37Z
2019-09-09T12:46:17Z,42.805,6.029,13.2968,4.59963,2469.914,2019-9-09T14:46:40Z
2019-09-09T12:49:21Z,42.805,6.029,13.2965,4.59963,2469.876,2019-9-09T14:49:43Z
2019-09-09T12:52:24Z,42.805,6.029,13.2964,4.59970,2469.876,2019-9-09T14:52:46Z
2019-09-09T12:55:27Z,42.805,6.029,13.2967,4.59966,2469.89,2019-9-09T14:55:50Z
2019-09-09T12:58:30Z,42.805,6.029,13.2968,4.59972,2469.923,2019-9-09T14:58:53Z
2019-09-09T13:01:33Z,42.805,6.029,13.2964,4.59965,2469.9,2019-9-09T15:01:56Z
2019-09-09T13:04:37Z,42.805,6.029,13.2966,4.59966,2469.9,2019-9-09T15:04:59Z
2019-09-09T13:07:40Z,42.805,6.029,13.2966,4.59968,2469.9,2019-9-09T15:08:03Z
2019-09-09T13:10:43Z,42.805,6.029,13.2968,4.59968,2469.9,2019-9-09T15:11:06Z
2019-09-09T13:13:46Z,42.805,6.029,13.2967,4.59966,2469.914,2019-9-09T15:14:09Z
2019-09-09T13:16:49Z,42.805,6.029,13.2968,4.59963,2469.914,2019-9-09T15:17:12Z
2019-09-09T13:19:53Z,42.805,6.029,13.2967,4.59966,2469.947,2019-9-09T15:20:15Z
2019-09-09T13:22:56Z,42.805,6.029,13.2964,4.59968,2469.9,2019-9-09T15:23:18Z
2019-09-09T13:25:59Z,42.805,6.029,13.2966,4.59966,2469.9,2019-9-09T15:26:22Z
2019-09-09T13:29:02Z,42.805,6.029,13.2967,4.59968,2469.937,2019-9-09T15:29:25Z
2019-09-09T13:32:05Z,42.805,6.029,13.2969,4.59971,2469.914,2019-9-09T15:32:28Z
2019-09-09T13:35:09Z,42.805,6.029,13.2968,4.59971,2469.937,2019-9-09T15:35:31Z
2019-09-09T13:38:12Z,42.805,6.029,13.2967,4.59972,2469.937,2019-9-09T15:38:34Z
2019-09-09T13:41:15Z,42.805,6.029,13.2971,4.59968,2469.937,2019-9-09T15:41:38Z
2019-09-09T13:44:18Z,42.805,6.029,13.2965,4.59965,2469.96,2019-9-09T15:44:41Z
2019-09-09T13:47:21Z,42.805,6.029,13.2968,4.59966,2469.923,2019-9-09T15:47:44Z
2019-09-09T13:50:25Z,42.805,6.029,13.2971,4.59972,2469.923,2019-9-09T15:50:47Z
2019-09-09T13:53:28Z,42.805,6.029,13.2971,4.59972,2469.923,2019-9-09T15:53:50Z
2019-09-09T13:56:31Z,42.805,6.029,13.2968,4.59968,2469.937,2019-9-09T15:56:54Z
2019-09-09T13:59:34Z,42.805,6.029,13.2968,4.59968,2469.947,2019-9-09T15:59:57Z
2019-09-09T14:02:37Z,42.805,6.029,13.2965,4.59966,2469.937,2019-9-09T16:03:00Z
2019-09-09T14:05:41Z,42.805,6.029,13.2971,4.59972,2469.96,2019-9-09T16:06:03Z
2019-09-09T14:08:44Z,42.805,6.029,13.2961,4.59965,2469.984,2019-9-09T16:09:06Z
2019-09-09T14:11:47Z,42.805,6.029,13.2968,4.59967,2469.96,2019-9-09T16:12:10Z
2019-09-09T14:14:50Z,42.805,6.029,13.2962,4.59979,2469.984,2019-9-09T16:15:13Z
2019-09-09T14:17:53Z,42.805,6.029,13.2960,4.59970,2469.96,2019-9-09T16:18:16Z
2019-09-09T14:20:57Z,42.805,6.029,13.2972,4.59975,2469.947,2019-9-09T16:21:19Z
2019-09-09T14:24:00Z,42.805,6.029,13.2967,4.59973,2469.937,2019-9-09T16:24:22Z
2019-09-09T14:27:03Z,42.805,6.029,13.2968,4.59970,2469.947,2019-9-09T16:27:26Z
2019-09-09T14:30:06Z,42.805,6.029,13.2964,4.59967,2469.947,2019-9-09T16:30:29Z
2019-09-09T14:33:09Z,42.805,6.029,13.2969,4.59967,2469.947,2019-9-09T16:33:32Z
2019-09-09T14:36:13Z,42.805,6.029,13.2971,4.59968,2469.984,2019-9-09T16:36:35Z
2019-09-09T14:39:16Z,42.805,6.029,13.2970,4.59966,2469.97,2019-9-09T16:39:38Z
2019-09-09T14:42:19Z,42.805,6.029,13.2966,4.59966,2469.947,2019-9-09T16:42:42Z
2019-09-09T14:45:22Z,42.805,6.029,13.2966,4.59966,2469.96,2019-9-09T16:45:45Z
2019-09-09T14:48:25Z,42.805,6.029,13.2967,4.59969,2469.923,2019-9-09T16:48:48Z
2019-09-09T14:51:29Z,42.805,6.029,13.2967,4.59975,2469.97,2019-9-09T16:51:51Z
2019-09-09T14:54:32Z,42.805,6.029,13.2967,4.59972,2469.947,2019-9-09T16:54:54Z
2019-09-09T14:57:35Z,42.805,6.029,13.2967,4.59968,2469.993,2019-9-09T16:57:58Z
2019-09-09T15:00:38Z,42.805,6.029,13.2968,4.59967,2469.947,2019-9-09T17:01:01Z
2019-09-09T15:03:41Z,42.805,6.029,13.2970,4.59974,2469.97,2019-9-09T17:04:04Z
2019-09-09T15:06:45Z,42.805,6.029,13.2966,4.59965,2469.923,2019-9-09T17:07:07Z
2019-09-09T15:09:48Z,42.805,6.029,13.2968,4.59971,2469.97,2019-9-09T17:10:10Z
2019-09-09T15:12:51Z,42.805,6.029,13.2968,4.59971,2469.97,2019-9-09T17:13:14Z
2019-09-09T15:15:54Z,42.805,6.029,13.2971,4.59973,2469.993,2019-9-09T17:16:17Z